Regional Weather Roundup
Issued by NWS Albany, NY

Home | Current Version | Previous Version | Text Only | Print | Product List | Glossary On
Versions: 1 2 3 4 5 6 7 8 9 10 11 12 13 14 15 16 17 18 19 20 21 22 23 24 25 26 27 28 29 30 31 32 33 34 35 36 37 38 39 40 41 42 43 44 45 46 47 48 49 50
000
ASUS41 KALY 041610
RWRALY

NEW YORK STATE HOURLY WEATHER ROUNDUP
NATIONAL WEATHER SERVICE ALBANY NY
1100 AM EST WED MAR 04 2015

NOTE: "FAIR" INDICATES FEW OR NO CLOUDS BELOW 12,000 FEET WITH NO
SIGNIFICANT WEATHER AND/OR NO OBSTRUCTIONS TO VISIBILITY.

NYZ032-033-038>043-046>054-057>066-NYZ062>081-041700-
EAST


CITY           SKY/WX    TMP DP  RH WIND       PRES   REMARKS
ALBANY         CLOUDY    36  27  69 W7        29.85R WCI  30
GLENS FALLS    CLOUDY    38  27  64 SW10      29.79S WCI  31
POUGHKEEPSIE   CLOUDY    40  34  79 SW9       29.85R WCI  34
NEWBURGH       PTSUNNY   39  36  87 W10       29.85R WCI  32
MONTGOMERY     CLOUDY    38  34  85 SW8       29.84R WCI  32
WHITE PLAINS   CLOUDY    40  36  86 W6        29.85R FOG
ISLIP          CLOUDY    38  35  89 SW8       29.86R FOG     WCI  32
NEW YORK CITY  CLOUDY    42  36  79 SW9       29.88R
CENTRAL PARK   CLOUDY    42  35  76 W6        29.90R HAZE
$$

NYZ005>009-017-018-044>046-055-056-041700-
CENTRAL


CITY           SKY/WX    TMP DP  RH WIND       PRES   REMARKS
FULTON         CLOUDY    33  24  69 W17G29    29.87R WCI  22
SYRACUSE       FLURRIES  30  29  96 W13       29.88R WCI  20
ROME           CLOUDY    32  26  78 W14       29.87R WCI  22
ELMIRA         CLOUDY    37  30  75 W10       29.84S WCI  30
BINGHAMTON     CLOUDY    32  31  96 SW7       29.82R WCI  26
MONTICELLO     CLOUDY    34  30  86 W9        29.84R WCI  26
$$

NYZ026>034-041>043-041700-
NORTH


CITY           SKY/WX    TMP DP  RH WIND       PRES   REMARKS
WATERTOWN      CLOUDY    35  26  69 SW16G28   29.83R WCI  25
FORT DRUM      NOT AVBL
MASSENA        CLOUDY    33  20  58 SW21G26   29.77S WCI  21
SARANAC LAKE   CLOUDY    26  22  84 SW17G25   29.70R WCI  13
PLATTSBURGH    CLOUDY    35  22  58 W13G22    29.74S WCI  26
$$

NYZ001>004-010>016-019>021-041700-
WEST


CITY           SKY/WX    TMP DP  RH WIND       PRES   REMARKS
NIAGARA FALLS  PTSUNNY   31  21  66 W21       29.88S WCI  18
BUFFALO        PTSUNNY   32  22  66 SW14      29.88F WCI  22
DUNKIRK        CLOUDY    32  24  72 SW13      29.91F WCI  22
JAMESTOWN      CLOUDY    28  23  80 W8        29.85F WCI  20
WELLSVILLE     CLOUDY    32  26  78 W10       29.82S WCI  24
ROCHESTER      CLOUDY    33  22  63 W12G21    29.87S WCI  24
PENN YAN       CLOUDY    36  26  67 W9        29.85R WCI  29
$$

             KEY
       WCI = WIND CHILL INDEX
       VSB = VISIBILITY
       HX  = HEAT INDEX
$$



USA.gov is the U.S. government's official web portal to all federal, state and local government web resources and services.